This is the latest recevied weather packets stored in our database for station/object W4MLN-3. If no packets are shown the sender has not sent any weather packets the latest 10 day(s).
| Time | Temp. | Humidity | Pressure | Rain* | Wind** | Luminosity | Snow |
|---|---|---|---|---|---|---|---|
| 1787924403 | 22.22° C | 81% | 1020.9 hPa | 0 mm | - | - | - |
| 1787924124 | 22.22° C | 83% | 1020.9 hPa | 0 mm | - | - | - |
| 1787923803 | 21.67° C | 87% | 1020.7 hPa | 0 mm | - | - | - |
| 1787923503 | 21.11° C | 90% | 1020.7 hPa | 0 mm | - | - | - |
| 1787923203 | 20.56° C | 91% | 1020.8 hPa | 0 mm | - | - | - |
| 1787922903 | 20.56° C | 95% | 1020.7 hPa | 0 mm | - | - | - |
| 1787922603 | 20° C | 97% | 1020.6 hPa | 0 mm | - | - | - |
| 1787922303 | 20° C | 97% | 1020.6 hPa | 0 mm | - | - | - |
| 1787922003 | 19.44° C | 97% | 1020.5 hPa | 0 mm | - | - | - |
| 1787921703 | 19.44° C | 97% | 1020.5 hPa | 0 mm | - | - | - |
| 1787921403 | 19.44° C | 98% | 1020.5 hPa | 0 mm | - | - | - |
| 1787921103 | 18.89° C | 98% | 1020.4 hPa | 0 mm | - | - | - |
| 1787920803 | 18.89° C | 97% | 1020.5 hPa | 0 mm | - | - | - |
| 1787920503 | 18.33° C | 97% | 1020.5 hPa | 0 mm | - | - | - |
| 1787920203 | 18.33° C | 97% | 1020.5 hPa | 0 mm | - | - | - |
| 1787919903 | 17.78° C | 97% | 1020.4 hPa | 0 mm | - | - | - |
| 1787919603 | 17.78° C | 97% | 1020.5 hPa | 0 mm | - | - | - |
| 1787919303 | 17.78° C | 97% | 1020.5 hPa | 0 mm | - | - | - |
| 1787919003 | 17.22° C | 97% | 1020.5 hPa | 0 mm | - | - | - |
| 1787918703 | 17.22° C | 97% | 1020.4 hPa | 0 mm | - | - | - |
| 1787918403 | 17.22° C | 97% | 1020.2 hPa | 0 mm | - | - | - |
| 1787918103 | 16.67° C | 97% | 1020.1 hPa | 0 mm | - | - | - |
| 1787917803 | 16.67° C | 97% | 1020 hPa | 0.25 mm | - | - | - |
| 1787917503 | 16.67° C | 97% | 1020 hPa | 0.25 mm | - | - | - |
| 1787917224 | 16.67° C | 96% | 1019.9 hPa | 0.25 mm | - | - | - |
* Rain latest hour (hover to see other rain measurements)
** Current wind speed in m/s (hover to see current wind gust speed)